When you browse on this site, cookies collect data to enhance your experience and personalize the content and advertising you see.
Visit our Privacy Policy to learn more. By continuing to use the site, you agree to this use of cookies and data.
  • In Portugal
  • List of Countries
  • For 7 days
  • Water Temperature
  • Satellite Maps
  • Weather Map
  • Weather Widgets
  • user-avatar
    Login

    Hourly Weather Chernogryazka

    Today, 18 February, Monday

    Time Temperature Precipitation Wind Pressure Humidity
    00:00 -5°C° 0 mm 6 mps 736 mmHg 80%
    01:00 -6°C° 0 mm 6 mps 736 mmHg 81%
    02:00 -6°C° 0 mm 6 mps 737 mmHg 81%
    03:00 -8°C° 0 mm 6 mps 738 mmHg 82%
    04:00 -8°C° 0 mm 6 mps 738 mmHg 84%
    05:00 -9°C° 0 mm 6 mps 739 mmHg 85%
    06:00 -9°C° 0 mm 6 mps 739 mmHg 86%
    07:00 -9°C° 0 mm 6 mps 740 mmHg 86%
    08:00 -10°C° 0 mm 6 mps 741 mmHg 87%
    09:00 -9°C° 0 mm 6 mps 741 mmHg 85%
    10:00 -8°C° 0 mm 6 mps 742 mmHg 82%
    11:00 -8°C° 0 mm 7 mps 742 mmHg 80%
    12:00 -8°C° 0 mm 6 mps 743 mmHg 80%
    13:00 -8°C° 0 mm 6 mps 743 mmHg 80%
    14:00 -6°C° 0 mm 5 mps 744 mmHg 80%
    15:00 -7°C° 0 mm 5 mps 744 mmHg 81%
    16:00 -8°C° 0 mm 4 mps 744 mmHg 83%
    17:00 -9°C° 0 mm 4 mps 745 mmHg 85%
    18:00 -9°C° 0 mm 3 mps 745 mmHg 86%
    19:00 -10°C° 0 mm 3 mps 746 mmHg 88%
    20:00 -12°C° 0 mm 3 mps 746 mmHg 89%
    21:00 -10°C° 0 mm 2 mps 746 mmHg 89%
    22:00 -12°C° 0 mm 2 mps 747 mmHg 90%
    23:00 -12°C° 0 mm 2 mps 747 mmHg 91%

    Tomorrow, 19 February, Tuesday

    Time Temperature Precipitation Wind Pressure Humidity
    00:00 -11°C° 0 mm 1 mps 747 mmHg 91%
    01:00 -11°C° 0 mm 1 mps 747 mmHg 91%
    02:00 -12°C° 0 mm 0 mps 748 mmHg 91%
    03:00 -11°C° 0 mm 1 mps 748 mmHg 90%
    04:00 -11°C° 0 mm 1 mps 747 mmHg 89%
    05:00 -13°C° 0 mm 2 mps 747 mmHg 89%
    06:00 -13°C° 0 mm 2 mps 747 mmHg 88%
    07:00 -12°C° 0 mm 2 mps 747 mmHg 88%
    08:00 -13°C° 0 mm 3 mps 747 mmHg 88%
    09:00 -10°C° 0 mm 3 mps 747 mmHg 86%
    10:00 -10°C° 0 mm 4 mps 747 mmHg 84%
    11:00 -8°C° 0 mm 4 mps 746 mmHg 83%
    12:00 -7°C° 0 mm 5 mps 746 mmHg 83%
    13:00 -7°C° 0 mm 5 mps 746 mmHg 82%
    14:00 -6°C° 0 mm 5 mps 745 mmHg 82%
    15:00 -6°C° 0 mm 5 mps 745 mmHg 83%
    16:00 -7°C° 0 mm 5 mps 744 mmHg 84%
    17:00 -7°C° 0 mm 5 mps 744 mmHg 85%
    18:00 -8°C° 0 mm 5 mps 743 mmHg 85%
    19:00 -8°C° 0 mm 5 mps 743 mmHg 86%
    20:00 -9°C° 0 mm 6 mps 743 mmHg 86%
    21:00 -9°C° 0 mm 6 mps 742 mmHg 86%
    22:00 -10°C° 0 mm 6 mps 742 mmHg 85%
    23:00 -10°C° 0 mm 6 mps 741 mmHg 85%

    Day after tomorrow, 20 February, Wednesday

    Time Temperature Precipitation Wind Pressure Humidity
    00:00 -10°C° 0 mm 6 mps 741 mmHg 85%
    01:00 -9°C° 0 mm 6 mps 740 mmHg 86%
    02:00 -9°C° 0 mm 6 mps 740 mmHg 86%
    03:00 -9°C° 0 mm 6 mps 739 mmHg 87%
    04:00 -9°C° 0 mm 6 mps 738 mmHg 87%
    05:00 -9°C° 0 mm 6 mps 737 mmHg 88%
    06:00 -8°C° 0 mm 7 mps 737 mmHg 89%
    07:00 -8°C° 0 mm 7 mps 737 mmHg 90%
    08:00 -7°C° 0 mm 7 mps 737 mmHg 90%
    09:00 -7°C° 0 mm 7 mps 736 mmHg 91%
    10:00 -6°C° 0 mm 7 mps 736 mmHg 91%
    11:00 -4°C° 0 mm 6 mps 736 mmHg 92%
    12:00 -4°C° 0.1 mm 6 mps 736 mmHg 92%
    13:00 -3°C° 0.1 mm 6 mps 735 mmHg 92%
    14:00 -3°C° 0.1 mm 6 mps 735 mmHg 92%
    15:00 -3°C° 0.1 mm 6 mps 735 mmHg 92%
    16:00 -3°C° 0.1 mm 6 mps 735 mmHg 92%
    17:00 -1°C° 0.1 mm 5 mps 735 mmHg 92%
    18:00 -2°C° 0 mm 5 mps 734 mmHg 91%
    19:00 -2°C° 0 mm 5 mps 734 mmHg 91%
    20:00 -2°C° 0 mm 5 mps 734 mmHg 91%
    21:00 -2°C° 0 mm 6 mps 734 mmHg 91%
    22:00 -2°C° 0 mm 6 mps 733 mmHg 91%
    23:00 -2°C° 0 mm 6 mps 733 mmHg 92%

    21 February, Thursday

    Time Temperature Precipitation Wind Pressure Humidity
    00:00 -2°C° 0.1 mm 6 mps 733 mmHg 91%
    01:00 -2°C° 0.1 mm 6 mps 732 mmHg 91%
    02:00 -2°C° 0.1 mm 6 mps 732 mmHg 91%
    03:00 -3°C° 0.3 mm 7 mps 732 mmHg 87%
    04:00 -4°C° 0.3 mm 7 mps 732 mmHg 84%
    05:00 -4°C° 0.3 mm 7 mps 731 mmHg 80%
    06:00 -6°C° 0 mm 6 mps 732 mmHg 82%
    07:00 -8°C° 0 mm 6 mps 732 mmHg 84%
    08:00 -8°C° 0 mm 5 mps 732 mmHg 86%
    09:00 -7°C° 0 mm 5 mps 732 mmHg 85%
    10:00 -6°C° 0 mm 6 mps 732 mmHg 83%
    11:00 -5°C° 0 mm 6 mps 733 mmHg 82%
    12:00 -5°C° 0.1 mm 6 mps 733 mmHg 82%
    13:00 -6°C° 0.1 mm 7 mps 732 mmHg 83%
    14:00 -6°C° 0.1 mm 7 mps 732 mmHg 83%
    15:00 -6°C° 0.1 mm 6 mps 733 mmHg 81%
    16:00 -8°C° 0.1 mm 6 mps 733 mmHg 80%
    17:00 -9°C° 0.1 mm 6 mps 734 mmHg 78%
    18:00 -9°C° 0 mm 6 mps 734 mmHg 80%
    19:00 -9°C° 0 mm 6 mps 735 mmHg 82%
    20:00 -9°C° 0 mm 7 mps 735 mmHg 84%
    21:00 -9°C° 0 mm 7 mps 736 mmHg 84%
    22:00 -10°C° 0 mm 6 mps 737 mmHg 84%
    23:00 -10°C° 0 mm 6 mps 737 mmHg 84%

    22 February, Friday

    Time Temperature Precipitation Wind Pressure Humidity
    00:00 -10°C° 0 mm 6 mps 738 mmHg 84%
    01:00 -11°C° 0 mm 6 mps 739 mmHg 84%
    02:00 -11°C° 0 mm 6 mps 739 mmHg 84%
    03:00 -12°C° 0 mm 6 mps 740 mmHg 84%
    04:00 -12°C° 0 mm 6 mps 740 mmHg 83%
    05:00 -14°C° 0 mm 6 mps 741 mmHg 83%
    06:00 -14°C° 0 mm 6 mps 741 mmHg 83%
    07:00 -15°C° 0 mm 6 mps 742 mmHg 82%
    08:00 -15°C° 0 mm 7 mps 743 mmHg 81%
    09:00 -15°C° 0 mm 7 mps 743 mmHg 80%
    10:00 -16°C° 0 mm 8 mps 743 mmHg 79%
    11:00 -16°C° 0 mm 8 mps 744 mmHg 78%
    12:00 -16°C° 0 mm 8 mps 744 mmHg 78%
    13:00 -16°C° 0 mm 8 mps 745 mmHg 77%
    14:00 -15°C° 0 mm 8 mps 745 mmHg 77%
    15:00 -15°C° 0 mm 8 mps 745 mmHg 78%
    16:00 -15°C° 0 mm 7 mps 746 mmHg 79%
    17:00 -15°C° 0 mm 6 mps 746 mmHg 80%
    18:00 -15°C° 0 mm 6 mps 747 mmHg 81%
    19:00 -15°C° 0 mm 6 mps 747 mmHg 82%
    20:00 -15°C° 0 mm 6 mps 748 mmHg 83%
    21:00 -15°C° 0 mm 6 mps 748 mmHg 84%
    22:00 -15°C° 0 mm 6 mps 749 mmHg 85%
    23:00 -15°C° 0 mm 6 mps 749 mmHg 85%

    23 February, Saturday

    Time Temperature Precipitation Wind Pressure Humidity
    00:00 -15°C° 0 mm 5 mps 750 mmHg 85%
    01:00 -15°C° 0 mm 5 mps 750 mmHg 85%
    02:00 -15°C° 0 mm 5 mps 751 mmHg 85%
    03:00 -17°C° 0 mm 5 mps 751 mmHg 86%
    04:00 -17°C° 0 mm 5 mps 752 mmHg 87%
    05:00 -18°C° 0 mm 5 mps 752 mmHg 88%
    06:00 -17°C° 0 mm 4 mps 752 mmHg 89%
    07:00 -17°C° 0 mm 4 mps 753 mmHg 90%
    08:00 -17°C° 0 mm 4 mps 753 mmHg 91%
    09:00 -15°C° 0 mm 4 mps 754 mmHg 89%
    10:00 -13°C° 0 mm 3 mps 754 mmHg 87%
    11:00 -12°C° 0 mm 3 mps 754 mmHg 86%
    12:00 -10°C° 0 mm 3 mps 754 mmHg 85%
    13:00 -8°C° 0 mm 2 mps 753 mmHg 84%
    14:00 -7°C° 0 mm 2 mps 753 mmHg 83%
    15:00 -8°C° 0 mm 2 mps 753 mmHg 83%
    16:00 -8°C° 0 mm 2 mps 753 mmHg 83%
    17:00 -8°C° 0 mm 2 mps 753 mmHg 83%
    18:00 -8°C° 0 mm 2 mps 753 mmHg 84%
    19:00 -9°C° 0 mm 3 mps 753 mmHg 84%
    20:00 -9°C° 0 mm 3 mps 753 mmHg 85%
    21:00 -9°C° 0 mm 3 mps 752 mmHg 85%
    22:00 -9°C° 0 mm 3 mps 752 mmHg 85%
    23:00 -10°C° 0 mm 4 mps 751 mmHg 86%
    Show more